Terminal Aerodrome Forecast
Issued by NWS Newport/Morehead City, NC

Home | Current Version | Previous Version | Text Only | Print | Product List | Glossary Off
Versions: 1 2 3 4 5 6 7 8 9 10 11 12 13 14 15

000
FTUS42 KMHX 240500
TAFEWN
TAF
KEWN 240539Z 2406/2506 18012G20KT 5SM RA BR SCT015 BKN030
      WS015/19040KT
      TEMPO 2406/2409 3SM +RA SCT007 BKN015
     FM240900 26009KT 3SM RA BR BKN006
     FM241800 30013G22KT P6SM BKN025
     FM242200 28007KT P6SM SKC=

USA.gov is the U.S. government's official web portal to all federal, state and local government web resources and services.